• In Hungary
  • List of Countries
  • For 7 days
  • Water Temperature
  • Satellite Maps
  • Weather Map
  • News
  • Weather Widgets
  • user-avatar
    Login

    Hourly Weather Narwik

    Today, 18 June, Monday

    Time Temperature Precipitation Wind Pressure Humidity
    00:00 +14°C° 0 mm 2 mps 750 mmHg 67%
    01:00 +13°C° 0 mm 2 mps 750 mmHg 71%
    02:00 +13°C° 0 mm 2 mps 749 mmHg 71%
    03:00 +13°C° 0 mm 2 mps 749 mmHg 71%
    04:00 +12°C° 0 mm 3 mps 748 mmHg 71%
    05:00 +13°C° 0.1 mm 3 mps 748 mmHg 70%
    06:00 +13°C° 0.1 mm 3 mps 747 mmHg 68%
    07:00 +13°C° 0 mm 4 mps 747 mmHg 69%
    08:00 +13°C° 0.5 mm 3 mps 746 mmHg 70%
    09:00 +14°C° 0.5 mm 2 mps 745 mmHg 72%
    10:00 +14°C° 0.5 mm 2 mps 745 mmHg 73%
    11:00 +14°C° 0.4 mm 2 mps 744 mmHg 74%
    12:00 +14°C° 0.4 mm 1 mps 744 mmHg 75%
    13:00 +14°C° 0.4 mm 1 mps 743 mmHg 75%
    14:00 +14°C° 0.2 mm 1 mps 743 mmHg 77%
    15:00 +14°C° 0.2 mm 2 mps 743 mmHg 79%
    16:00 +14°C° 0.2 mm 2 mps 742 mmHg 81%
    17:00 +14°C° 0.5 mm 2 mps 742 mmHg 84%
    18:00 +13°C° 0.5 mm 2 mps 742 mmHg 87%
    19:00 +13°C° 0.5 mm 2 mps 741 mmHg 90%
    20:00 +12°C° 0.2 mm 2 mps 741 mmHg 90%
    21:00 +12°C° 0.2 mm 2 mps 741 mmHg 91%
    22:00 +12°C° 0.2 mm 2 mps 741 mmHg 91%
    23:00 +10°C° 0 mm 2 mps 741 mmHg 91%

    Tomorrow, 19 June, Tuesday

    Time Temperature Precipitation Wind Pressure Humidity
    00:00 +10°C° 0 mm 2 mps 741 mmHg 92%
    01:00 +9°C° 0 mm 2 mps 741 mmHg 92%
    02:00 +11°C° 0 mm 1 mps 740 mmHg 89%
    03:00 +11°C° 0 mm 1 mps 740 mmHg 85%
    04:00 +12°C° 0 mm 1 mps 739 mmHg 81%
    05:00 +13°C° 0 mm 1 mps 738 mmHg 76%
    06:00 +13°C° 0 mm 2 mps 738 mmHg 71%
    07:00 +14°C° 0 mm 2 mps 737 mmHg 66%
    08:00 +15°C° 0 mm 2 mps 736 mmHg 63%
    09:00 +16°C° 0 mm 3 mps 736 mmHg 61%
    10:00 +17°C° 0 mm 4 mps 735 mmHg 58%
    11:00 +15°C° 0.7 mm 4 mps 735 mmHg 63%
    12:00 +15°C° 0.7 mm 4 mps 735 mmHg 69%
    13:00 +14°C° 0.7 mm 4 mps 734 mmHg 74%
    14:00 +13°C° 1.7 mm 4 mps 734 mmHg 78%
    15:00 +12°C° 1.7 mm 4 mps 734 mmHg 81%
    16:00 +11°C° 1.7 mm 3 mps 734 mmHg 85%
    17:00 +10°C° 1.9 mm 3 mps 734 mmHg 88%
    18:00 +9°C° 1.9 mm 3 mps 735 mmHg 91%
    19:00 +9°C° 1.9 mm 3 mps 735 mmHg 93%
    20:00 +8°C° 1.4 mm 3 mps 735 mmHg 93%
    21:00 +8°C° 1.4 mm 2 mps 735 mmHg 93%
    22:00 +8°C° 1.4 mm 2 mps 735 mmHg 93%
    23:00 +7°C° 0.9 mm 2 mps 735 mmHg 94%

    Day after tomorrow, 20 June, Wednesday

    Time Temperature Precipitation Wind Pressure Humidity
    00:00 +7°C° 0.9 mm 2 mps 735 mmHg 94%
    01:00 +7°C° 0.9 mm 2 mps 735 mmHg 94%
    02:00 +7°C° 0.5 mm 2 mps 735 mmHg 94%
    03:00 +8°C° 0.5 mm 2 mps 735 mmHg 94%
    04:00 +8°C° 0.5 mm 2 mps 735 mmHg 94%
    05:00 +8°C° 0.3 mm 2 mps 735 mmHg 93%
    06:00 +8°C° 0.3 mm 2 mps 735 mmHg 92%
    07:00 +9°C° 0.3 mm 2 mps 735 mmHg 91%
    08:00 +9°C° 0.3 mm 2 mps 736 mmHg 90%
    09:00 +9°C° 0.3 mm 2 mps 736 mmHg 88%
    10:00 +10°C° 0.3 mm 2 mps 736 mmHg 87%
    11:00 +10°C° 0.3 mm 2 mps 736 mmHg 86%
    12:00 +10°C° 0.3 mm 2 mps 737 mmHg 85%
    13:00 +12°C° 0.3 mm 2 mps 737 mmHg 84%
    14:00 +12°C° 0.2 mm 2 mps 737 mmHg 84%
    15:00 +12°C° 0.2 mm 2 mps 738 mmHg 84%
    16:00 +12°C° 0.2 mm 2 mps 738 mmHg 84%
    17:00 +10°C° 0.3 mm 2 mps 738 mmHg 86%
    18:00 +10°C° 0.3 mm 2 mps 739 mmHg 88%
    19:00 +10°C° 0.3 mm 2 mps 739 mmHg 89%
    20:00 +10°C° 0.4 mm 2 mps 739 mmHg 91%
    21:00 +9°C° 0.4 mm 2 mps 740 mmHg 93%
    22:00 +9°C° 0.4 mm 2 mps 740 mmHg 95%
    23:00 +9°C° 0.6 mm 2 mps 740 mmHg 95%

    21 June, Thursday

    Time Temperature Precipitation Wind Pressure Humidity
    00:00 +9°C° 0.6 mm 2 mps 741 mmHg 96%
    01:00 +8°C° 0.6 mm 2 mps 741 mmHg 96%
    02:00 +8°C° 0.5 mm 2 mps 741 mmHg 96%
    03:00 +8°C° 0.5 mm 2 mps 741 mmHg 96%
    04:00 +8°C° 0.5 mm 2 mps 742 mmHg 96%
    05:00 +8°C° 0.3 mm 2 mps 742 mmHg 95%
    06:00 +8°C° 0.3 mm 2 mps 742 mmHg 94%
    07:00 +9°C° 0.3 mm 2 mps 742 mmHg 93%
    08:00 +9°C° 0.3 mm 2 mps 743 mmHg 92%
    09:00 +9°C° 0.3 mm 2 mps 743 mmHg 91%
    10:00 +9°C° 0.3 mm 2 mps 743 mmHg 90%
    11:00 +9°C° 0.3 mm 2 mps 744 mmHg 90%
    12:00 +9°C° 0.3 mm 3 mps 744 mmHg 89%
    13:00 +9°C° 0.3 mm 3 mps 744 mmHg 89%
    14:00 +9°C° 0.3 mm 2 mps 745 mmHg 90%
    15:00 +9°C° 0.3 mm 2 mps 745 mmHg 91%
    16:00 +9°C° 0.3 mm 2 mps 745 mmHg 92%
    17:00 +9°C° 0.3 mm 2 mps 746 mmHg 92%
    18:00 +9°C° 0.3 mm 2 mps 746 mmHg 93%
    19:00 +9°C° 0.3 mm 2 mps 746 mmHg 93%
    20:00 +9°C° 0.2 mm 2 mps 747 mmHg 94%
    21:00 +9°C° 0.2 mm 2 mps 747 mmHg 95%
    22:00 +8°C° 0.2 mm 2 mps 747 mmHg 96%
    23:00 +8°C° 0.1 mm 2 mps 747 mmHg 96%

    22 June, Friday

    Time Temperature Precipitation Wind Pressure Humidity
    00:00 +8°C° 0.1 mm 2 mps 748 mmHg 97%
    01:00 +8°C° 0.1 mm 2 mps 748 mmHg 97%
    02:00 +8°C° 0.1 mm 3 mps 748 mmHg 97%
    03:00 +8°C° 0.1 mm 3 mps 748 mmHg 96%
    04:00 +8°C° 0.1 mm 3 mps 748 mmHg 96%
    05:00 +9°C° 0.1 mm 3 mps 748 mmHg 95%
    06:00 +9°C° 0.1 mm 3 mps 748 mmHg 94%
    07:00 +9°C° 0.1 mm 3 mps 748 mmHg 94%
    08:00 +10°C° 0 mm 3 mps 749 mmHg 92%
    09:00 +10°C° 0 mm 3 mps 749 mmHg 90%
    10:00 +11°C° 0 mm 3 mps 749 mmHg 89%
    11:00 +11°C° 0 mm 3 mps 749 mmHg 88%
    12:00 +11°C° 0 mm 3 mps 749 mmHg 87%
    13:00 +12°C° 0 mm 3 mps 749 mmHg 86%
    14:00 +12°C° 0 mm 3 mps 749 mmHg 85%
    15:00 +12°C° 0 mm 3 mps 749 mmHg 84%
    16:00 +12°C° 0 mm 3 mps 749 mmHg 83%
    17:00 +12°C° 0 mm 3 mps 749 mmHg 84%
    18:00 +12°C° 0 mm 3 mps 749 mmHg 84%
    19:00 +12°C° 0 mm 3 mps 749 mmHg 85%
    20:00 +11°C° 0 mm 3 mps 749 mmHg 87%
    21:00 +11°C° 0 mm 3 mps 749 mmHg 90%
    22:00 +10°C° 0 mm 2 mps 749 mmHg 92%
    23:00 +10°C° 0 mm 2 mps 749 mmHg 93%

    23 June, Saturday

    Time Temperature Precipitation Wind Pressure Humidity
    00:00 +9°C° 0 mm 2 mps 749 mmHg 94%
    01:00 +9°C° 0 mm 2 mps 748 mmHg 95%
    02:00 +9°C° 0 mm 3 mps 748 mmHg 93%
    03:00 +9°C° 0 mm 3 mps 748 mmHg 92%
    04:00 +9°C° 0 mm 3 mps 748 mmHg 91%
    05:00 +9°C° 0 mm 3 mps 748 mmHg 88%
    06:00 +10°C° 0 mm 3 mps 748 mmHg 85%
    07:00 +10°C° 0 mm 3 mps 748 mmHg 83%
    08:00 +10°C° 0 mm 3 mps 747 mmHg 81%
    09:00 +11°C° 0 mm 4 mps 747 mmHg 78%
    10:00 +11°C° 0 mm 4 mps 747 mmHg 76%
    11:00 +11°C° 0.1 mm 4 mps 747 mmHg 79%
    12:00 +10°C° 0.1 mm 4 mps 747 mmHg 82%
    13:00 +10°C° 0.1 mm 4 mps 746 mmHg 84%
    14:00 +10°C° 0.4 mm 4 mps 746 mmHg 87%
    15:00 +9°C° 0.4 mm 3 mps 746 mmHg 89%
    16:00 +9°C° 0.4 mm 3 mps 746 mmHg 91%
    17:00 +9°C° 0.8 mm 3 mps 746 mmHg 92%
    18:00 +8°C° 0.8 mm 3 mps 746 mmHg 93%
    19:00 +8°C° 0.8 mm 3 mps 746 mmHg 94%
    20:00 +8°C° 0.7 mm 3 mps 745 mmHg 95%
    21:00 +8°C° 0.7 mm 3 mps 745 mmHg 95%
    22:00 +8°C° 0.7 mm 3 mps 745 mmHg 95%
    23:00 +8°C° 0.8 mm 3 mps 745 mmHg 96%
    Show more